Content
SEND FEEDBACK

Daily
Averages
Monthly
Summary
United States of America

CHOKE CANYON RESERVOIR, TEXAS


Home > North America > United States > Texas
Elevation: 70 meters     Latitude: 28 28N     Longitude: 098 16W

WEATHER
 
SELECT A DAY
Number of Records: 172,485;   Date Range: 5/14/07 - 7/27/14
 
SHARE

PRINT THIS DATA

[ ← Previous Day ]
WEATHER ALMANAC - 3 JANUARY, 2013
[ Next Day → ]
[ °F ]   °C
Weather ElementAverageHighLow
Temperature7.2 °C10 °C (3:35 pm)6 °C (12:35 am)
Dewpoint0.2 °C2 °C (12:35 am)-1 °C (11:35 am)
Humidity61.9 %76 % (12:35 am)50 % (1:15 pm)
Barometer1028.1 hPa1030.1 hPa (10:15 am)1025.7 hPa (12:35 am)
Wind Speed14 km/h22.2 km/h (5:15 pm)
Wind Gust29.6 km/h (4:15 am)
Weather ElementAverage
Visibility16.1 km
Wind DirectionNNE (29.1 °)

Weather ElementTotal
Precipitation---
Heating Degree Days10.3 (Base 18.3)
Averaged from 66 records on 3 January, 2013
WEATHER CONDITIONS BREAKOUT
WIND DIRECTION BREAKOUT
WEATHER BY HOUR - 3 JANUARY, 2013
[ °F ]   °C
Local TimeTemperatureDewpointHumidityBarometerVisibilityWind DirectionWind SpeedGust SpeedPrecipitationEventsConditions
12:35 AM6 °C2 °C76 %1025.7 hPa16.1 kmNorth (10°)7.4 km/hOvercast
12:55 AM6 °C2 °C76 %1025.7 hPa16.1 kmNorth (360°)9.3 km/hOvercast
1:15 AM6 °C1 °C70 %1025.7 hPa16.1 kmNorth (10°)11.1 km/hOvercast
1:35 AM6 °C1 °C70 %1025.7 hPa16.1 kmNorth (10°)9.3 km/hOvercast
1:55 AM6 °C1 °C70 %1026.1 hPa16.1 kmNorth (10°)13 km/hOvercast
2:15 AM6 °C1 °C70 %1026.1 hPa16.1 kmNorth (10°)14.8 km/hOvercast
2:35 AM6 °C1 °C70 %1026.4 hPa16.1 kmNorth (10°)9.3 km/hOvercast
2:55 AM6 °C1 °C70 %1026.4 hPa16.1 kmNNE (20°)9.3 km/hOvercast
3:15 AM6 °C1 °C70 %1026.4 hPa16.1 kmNorth (10°)13 km/hOvercast
3:35 AM6 °C1 °C70 %1026.4 hPa16.1 kmNorth (10°)16.7 km/hOvercast
3:55 AM6 °C1 °C70 %1026.4 hPa16.1 kmNNE (20°)13 km/hOvercast
4:15 AM6 °C0 °C66 %1026.4 hPa16.1 kmNNE (30°)18.5 km/h29.6 km/hOvercast
4:35 AM6 °C0 °C66 %1026.4 hPa16.1 kmNorth (10°)16.7 km/h25.9 km/hOvercast
4:55 AM6 °C0 °C66 %1026.4 hPa16.1 kmNNE (20°)16.7 km/hOvercast
5:15 AM6 °C1 °C70 %1026.1 hPa16.1 kmNNE (30°)20.4 km/hOvercast
5:35 AM6 °C0 °C66 %1026.1 hPa16.1 kmNNE (20°)18.5 km/hOvercast
5:55 AM6 °C0 °C66 %1026.4 hPa16.1 kmNNE (30°)18.5 km/h27.8 km/hOvercast
6:15 AM6 °C0 °C66 %1026.4 hPa16.1 kmNNE (20°)16.7 km/h25.9 km/hOvercast
6:35 AM6 °C0 °C66 %1026.8 hPa16.1 kmNNE (20°)18.5 km/hOvercast
6:55 AM6 °C0 °C66 %1027.1 hPa16.1 kmNNE (20°)18.5 km/h27.8 km/hOvercast
7:15 AM6 °C0 °C66 %1027.4 hPa16.1 kmNNE (20°)11.1 km/hOvercast
7:35 AM6 °C0 °C66 %1028.1 hPa16.1 kmNNE (20°)16.7 km/h25.9 km/hOvercast
7:55 AM6 °C0 °C66 %1028.1 hPa16.1 kmNNE (30°)16.7 km/hOvercast
8:15 AM6 °C0 °C66 %1028.4 hPa16.1 kmNNE (30°)11.1 km/hOvercast
8:35 AM6 °C0 °C66 %1028.8 hPa16.1 kmNNE (20°)9.3 km/hOvercast
8:55 AM6 °C0 °C66 %1029.1 hPa16.1 kmNNE (20°)14.8 km/hOvercast
9:15 AM6 °C0 °C66 %1029.1 hPa16.1 kmNE (40°)16.7 km/hOvercast
9:35 AM6 °C0 °C66 %1029.5 hPa16.1 kmNNE (20°)13 km/hOvercast
9:55 AM7 °C0 °C61 %1029.8 hPa16.1 kmNNE (20°)14.8 km/hOvercast
10:15 AM7 °C0 °C61 %1030.1 hPa16.1 kmNNE (30°)16.7 km/hOvercast
10:35 AM7 °C0 °C61 %1030.1 hPa16.1 kmNNE (20°)16.7 km/hOvercast
10:55 AM7 °C0 °C61 %1030.1 hPa16.1 kmNNE (30°)16.7 km/hOvercast
11:15 AM7 °C0 °C61 %1029.8 hPa16.1 kmNE (40°)18.5 km/hOvercast
11:35 AM8 °C-1 °C53 %1029.8 hPa16.1 kmNNE (30°)16.7 km/hOvercast
11:55 AM8 °C0 °C57 %1029.5 hPa16.1 kmNNE (20°)14.8 km/hOvercast
12:15 PM8 °C-1 °C53 %1029.1 hPa16.1 kmNE (40°)18.5 km/hOvercast
12:35 PM8 °C-1 °C53 %1028.4 hPa16.1 kmNE (40°)20.4 km/h27.8 km/hOvercast
12:55 PM8 °C-1 °C53 %1028.1 hPa16.1 kmNNE (30°)16.7 km/h29.6 km/hOvercast
1:15 PM9 °C-1 °C50 %1028.1 hPa16.1 kmNNE (20°)18.5 km/h29.6 km/hOvercast
1:55 PM9 °C-1 °C50 %1027.8 hPa16.1 kmNNE (20°)18.5 km/h27.8 km/hOvercast
2:15 PM9 °C-1 °C50 %1027.4 hPa16.1 kmNorth (10°)18.5 km/h25.9 km/hOvercast
2:35 PM9 °C-1 °C50 %1027.4 hPa16.1 kmNE (40°)16.7 km/hOvercast
3:35 PM10 °C0 °C50 %1027.8 hPa16.1 kmNE (40°)13 km/hOvercast
3:55 PM10 °C0 °C50 %1028.1 hPa16.1 kmNNE (30°)16.7 km/hOvercast
4:35 PM10 °C0 °C50 %1028.1 hPa16.1 kmNE (40°)16.7 km/hOvercast
4:55 PM10 °C0 °C50 %1028.4 hPa16.1 kmNNE (20°)16.7 km/hOvercast
5:15 PM9 °C0 °C54 %1028.4 hPa16.1 kmNNE (20°)22.2 km/hOvercast
5:35 PM9 °C0 °C54 %1028.8 hPa16.1 kmNNE (20°)14.8 km/hOvercast
6:15 PM8 °C0 °C57 %1029.1 hPa16.1 kmNNE (20°)9.3 km/hOvercast
6:35 PM8 °C0 °C57 %1029.1 hPa16.1 kmNNE (20°)9.3 km/hOvercast
6:55 PM8 °C0 °C57 %1029.5 hPa16.1 kmNNE (20°)11.1 km/hOvercast
7:15 PM8 °C0 °C57 %1029.5 hPa16.1 kmNNE (20°)11.1 km/hOvercast
7:35 PM8 °C0 °C57 %1029.5 hPa16.1 kmNNE (20°)11.1 km/hOvercast
7:55 PM8 °C0 °C57 %1029.5 hPa16.1 kmNNE (30°)9.3 km/hOvercast
8:15 PM8 °C1 °C62 %1029.5 hPa16.1 kmNNE (20°)11.1 km/hOvercast
8:35 PM8 °C1 °C62 %1029.5 hPa16.1 kmNNE (30°)11.1 km/hMostly Cloudy
8:55 PM8 °C0 °C57 %1029.1 hPa16.1 kmNE (40°)13 km/hMostly Cloudy
9:15 PM8 °C1 °C62 %1028.8 hPa16.1 kmNE (40°)9.3 km/hMostly Cloudy
9:35 PM8 °C0 °C57 %1028.8 hPa16.1 kmNE (40°)13 km/hMostly Cloudy
9:55 PM7 °C0 °C61 %1029.1 hPa16.1 kmNNE (20°)11.1 km/hScattered Clouds
10:15 PM7 °C0 °C61 %1029.1 hPa16.1 kmNNE (30°)9.3 km/hClear
10:35 PM7 °C1 °C66 %1029.1 hPa16.1 kmNNE (30°)9.3 km/hScattered Clouds
10:55 PM7 °C1 °C66 %1028.4 hPa16.1 kmNNE (30°)9.3 km/hScattered Clouds
11:15 PM7 °C1 °C66 %1028.4 hPa16.1 kmNNE (30°)9.3 km/hOvercast
11:35 PM7 °C1 °C66 %1028.8 hPa16.1 kmNNE (20°)9.3 km/hOvercast
11:55 PM7 °C1 °C66 %1028.8 hPa16.1 kmNNE (20°)9.3 km/hOvercast
Hourly data recorded from KBEA, located 0 kilometers away from Choke Canyon Reservoir, Texas







STORIES FROM OUR PARTNERS